[[{"header":{"parameterUnit":"m.s-1","parameterCategory":1,"la1":30.2991,"la2":30.254,"lo1":-89.0895,"lo2":-89.0444,"dy":0.0017,"dx":0.0017,"nx":28,"ny":28,"refTime":"2023-06-27T21:00:00:Z","depth":0,"parameterNumber":2,"parameterNumberName":"U-component_of_WINDS"},"data":[0,0,0,0,0,0,0,0,0,0,0,0,0,0,0,0,0,0,0,0,0,0,0,0,0,0,0,0,0,0,0,0,0,0,0,0,0,0,0,0,0,0,0,0,0,0,0,0,0,0,0,0,0,0,0,0,0,0,1.9456,1.9457,0,1.9518,1.9518,1.9519,1.9544,1.9544,1.9544,1.9543,1.9609,1.9611,1.9613,0,0,0,0,0,0,0,0,0,0,0,0,0,1.9363,1.9365,1.9456,1.9457,1.9457,1.9518,1.9518,1.9519,1.9544,1.9544,1.9544,1.9543,1.9609,1.9611,1.9613,0,0,0,0,0,0,0,0,0,0,0,0,0,1.9412,1.9365,1.9456,1.9477,1.9479,1.9517,1.9518,1.952,1.9544,1.9544,1.9543,1.9543,1.9608,1.9611,1.9614,1.9636,0,0,1.9622,1.9624,0,0,0,0,0,0,0,0,1.9409,1.9416,1.9473,1.9475,1.9478,1.9523,1.951,1.9559,1.9544,1.9519,1.9543,1.9543,1.9581,1.9586,1.9598,1.9639,1.9642,1.9623,1.9624,1.9626,1.9626,0,0,0,0,0,0,0,1.9406,1.9413,1.948,1.9474,1.9477,1.9485,1.9491,1.9519,1.9551,1.9522,1.9524,1.953,1.9582,1.9595,1.96,1.9643,1.9623,1.9625,1.9627,1.9628,1.9709,1.971,0,0,0,0,0,0,1.9399,1.941,1.9478,1.9482,1.9443,1.9487,1.9494,1.9509,1.9551,1.9557,1.9531,1.9531,1.9591,1.9597,1.9602,1.9634,1.9626,1.9628,1.963,1.9709,1.9709,1.971,0,0,0,0,0,0,1.9397,1.9404,1.9476,1.9447,1.9456,1.9488,1.9505,1.951,1.9523,1.9557,1.9563,1.9538,1.9591,1.9598,1.9628,1.9636,1.963,1.9632,1.9708,1.9709,1.971,1.9695,0,0,0,0,0,0,1.9394,1.9404,1.9411,1.9447,1.9458,1.9499,1.9505,1.9512,1.9528,1.9529,1.9566,1.9572,1.9591,1.9624,1.9631,1.964,1.9634,1.9708,1.9709,1.9709,1.9695,1.9695,1.9695,0,0,0,0,0,1.939,1.9404,1.9411,1.9419,1.9468,1.9499,1.9506,1.9527,1.9528,1.9537,1.956,1.957,1.9634,1.9627,1.9635,1.9645,1.9707,1.9708,1.9709,1.9695,1.9695,1.9695,0,0,0,0,0,0,1.9369,1.9409,1.9417,1.9443,1.9468,1.9503,1.9515,1.9526,1.9552,1.9552,1.9579,1.9587,1.9615,1.9633,1.9624,1.9671,1.9672,1.9674,1.9658,1.9658,1.9658,1.9654,1.9637,0,0,0,0,0,1.9367,1.9388,1.9423,1.9442,1.9454,1.9482,1.9497,1.9512,1.9538,1.9549,1.9574,1.96,1.9627,1.9643,1.9669,1.9698,1.9707,1.9709,1.9709,1.9709,1.9711,1.9731,1.9733,1.9713,1.9713,1.9713,0,0,1.9363,1.9388,1.94,1.9439,1.9459,1.9482,1.9491,1.9514,1.9532,1.9553,1.9583,1.9602,1.9634,1.9664,1.9678,1.9679,1.9719,1.971,1.971,1.9712,1.9732,1.9734,1.9735,1.9714,1.9714,1.9714,0,0,1.9369,1.9389,1.9409,1.943,1.9461,1.948,1.9485,1.952,1.9534,1.9564,1.9581,1.9604,1.9647,1.967,1.9688,1.9705,1.9717,1.9713,1.9714,1.9733,1.9734,1.9736,1.9744,1.9747,1.9715,1.9715,1.9715,0,1.9361,1.9395,1.9417,1.9441,1.9458,1.9478,1.95,1.9519,1.9558,1.957,1.9571,1.9629,1.9652,1.9688,1.9693,1.9706,1.9714,1.9709,1.9732,1.9734,1.9735,1.9744,1.9747,1.9714,1.9715,1.9715,1.9715,0,1.9385,1.9409,1.9421,1.9458,1.9477,1.9499,1.9527,1.9543,1.9557,1.9577,1.961,1.9638,1.9671,1.9681,1.9694,1.9721,1.9721,1.9726,1.9728,1.9736,1.9745,1.9748,1.9714,1.9714,1.9714,1.9714,0,0,1.9377,1.9428,1.9432,1.9451,1.9488,1.9508,1.9532,1.9564,1.958,1.9606,1.9629,1.9667,1.9673,1.9693,1.971,1.9726,1.9741,1.973,1.9731,1.9733,1.9775,1.9772,1.9775,1.9749,1.975,1.975,1.9773,0,1.9389,1.9432,1.9454,1.9489,1.9513,1.9534,1.9555,1.9582,1.9602,1.9626,1.9649,1.9676,1.9681,1.9694,1.9711,1.9735,1.975,1.9734,1.9773,1.9774,1.9765,1.9779,1.9774,1.9794,1.9776,1.9777,1.9777,0,1.9408,1.9435,1.9472,1.9509,1.952,1.9539,1.9572,1.9595,1.9626,1.964,1.9663,1.968,1.9709,1.9709,1.975,1.9739,1.9756,1.9771,1.9773,1.9778,1.9776,1.9786,1.9801,1.9804,1.9782,1.9782,1.9782,0,1.9401,1.9446,1.9475,1.949,1.9534,1.9547,1.9567,1.9598,1.9617,1.9646,1.966,1.9692,1.971,1.9736,1.9762,1.9759,1.9802,1.9803,1.9816,1.9816,1.9825,1.9824,1.9844,1.9834,1.9834,1.9834,1.9834,0,1.9412,1.9434,1.9473,1.9491,1.9517,1.9544,1.957,1.9591,1.9619,1.9643,1.9663,1.9686,1.9718,1.9745,1.9766,1.9799,1.9806,1.982,1.9825,1.9819,1.9817,1.9831,1.9831,1.9834,1.9834,1.9834,1.9834,0,1.9408,1.9435,1.9468,1.9508,1.9518,1.9536,1.9571,1.9591,1.9612,1.9643,1.9651,1.9686,1.9719,1.9748,1.9791,1.9806,1.984,1.9846,1.9829,1.9832,1.9845,1.9844,1.9875,1.9882,1.9865,1.9866,1.9866,0,1.9414,1.9432,1.9474,1.9491,1.951,1.9538,1.9558,1.9585,1.9606,1.9645,1.966,1.9695,1.9724,1.9777,1.9807,1.9841,1.9849,1.9858,1.9854,1.9848,1.9852,1.9851,1.9854,1.9858,1.9858,1.9858,1.9858,0,1.9422,1.9435,1.9463,1.9496,1.9519,1.9547,1.9575,1.9588,1.9622,1.9644,1.9678,1.9701,1.9746,1.9781,1.982,1.9842,1.9857,1.9859,1.9865,1.9858,1.9849,1.9856,1.9831,1.9858,1.9858,1.9858,1.9858,1.9858,1.9425,1.9443,1.9476,1.9507,1.9531,1.9558,1.9579,1.9604,1.9632,1.9671,1.9687,1.9722,1.9757,1.981,1.9832,1.9862,1.9864,1.9871,1.9873,1.9875,1.9875,1.9843,1.9869,1.9869,1.9869,1.9869,1.9869,0,1.9435,1.9459,1.9487,1.9526,1.9551,1.9563,1.9595,1.9616,1.9647,1.9677,1.9706,1.9747,1.9782,1.9816,1.9854,1.9871,1.9879,1.988,1.988,1.9885,1.9869,1.9862,1.9873,1.9873,1.9873,1.9873,1.9873,1.9873,1.9444,1.9476,1.9493,1.9539,1.9562,1.9597,1.9615,1.964,1.9665,1.971,1.9739,1.9761,1.9794,1.9834,1.9868,1.9877,1.9891,1.989,1.9902,1.9887,1.9886,1.9885,1.9878,1.9893,1.9893,1.9915,1.9916,1.9916]},{"header":{"parameterUnit":"m.s-1","parameterCategory":1,"la1":30.2991,"la2":30.254,"lo1":-89.0895,"lo2":-89.0444,"dy":0.0017,"dx":0.0017,"nx":28,"ny":28,"refTime":"2023-06-27T21:00:00:Z","depth":0,"parameterNumber":3,"parameterNumberName":"V-component_of_WINDS"},"data":[0,0,0,0,0,0,0,0,0,0,0,0,0,0,0,0,0,0,0,0,0,0,0,0,0,0,0,0,0,0,0,0,0,0,0,0,0,0,0,0,0,0,0,0,0,0,0,0,0,0,0,0,0,0,0,0,0,0,1.5586,1.5587,0,1.567,1.5671,1.5672,1.5674,1.5673,1.5672,1.5671,1.5755,1.5758,1.5761,0,0,0,0,0,0,0,0,0,0,0,0,0,1.5427,1.543,1.5586,1.5587,1.5588,1.567,1.5671,1.5672,1.5674,1.5673,1.5671,1.567,1.5754,1.5757,1.5761,0,0,0,0,0,0,0,0,0,0,0,0,0,1.5502,1.5431,1.5586,1.5599,1.5601,1.567,1.5671,1.5672,1.5674,1.5672,1.5671,1.5669,1.5752,1.5757,1.5762,1.5822,0,0,1.5776,1.5778,0,0,0,0,0,0,0,0,1.5497,1.5508,1.5596,1.5598,1.5601,1.566,1.5646,1.5723,1.5674,1.5646,1.5671,1.5669,1.5724,1.5731,1.575,1.5826,1.583,1.5777,1.578,1.5782,1.5783,0,0,0,0,0,0,0,1.5492,1.5504,1.5619,1.5597,1.56,1.56,1.5609,1.566,1.5693,1.5649,1.5649,1.5659,1.5725,1.5746,1.5752,1.5831,1.5777,1.5781,1.5784,1.5786,1.596,1.5962,0,0,0,0,0,0,1.5485,1.55,1.5617,1.5622,1.5544,1.5604,1.5614,1.5642,1.5692,1.5699,1.566,1.5659,1.5738,1.5747,1.5755,1.5829,1.5782,1.5786,1.5789,1.5958,1.5961,1.5963,0,0,0,0,0,0,1.5481,1.5495,1.5613,1.5561,1.5576,1.5609,1.564,1.5645,1.5665,1.5701,1.5707,1.5675,1.5737,1.5748,1.5806,1.5832,1.5788,1.5793,1.5956,1.5959,1.5962,1.5977,0,0,0,0,0,0,1.5477,1.5494,1.5518,1.5561,1.5579,1.5663,1.5642,1.5648,1.5674,1.5673,1.5717,1.5722,1.5737,1.5798,1.581,1.5837,1.5797,1.5954,1.5958,1.5961,1.5974,1.5979,1.5984,0,0,0,0,0,1.5471,1.5518,1.5519,1.5533,1.5609,1.5664,1.5674,1.569,1.5676,1.57,1.5723,1.5721,1.5827,1.5804,1.5818,1.5847,1.5953,1.5957,1.596,1.5972,1.5978,1.5984,0,0,0,0,0,0,1.5476,1.5524,1.5525,1.5588,1.5622,1.5665,1.5695,1.5697,1.5735,1.5733,1.5751,1.5761,1.5817,1.5838,1.5811,1.5908,1.5888,1.5895,1.5892,1.5899,1.5904,1.5897,1.5801,0,0,0,0,0,1.5485,1.5526,1.5566,1.5618,1.5635,1.5662,1.5687,1.5696,1.5732,1.5746,1.5773,1.5807,1.5848,1.5875,1.5914,1.5977,1.5986,1.6004,1.6009,1.6013,1.6018,1.6052,1.606,1.5975,1.5975,1.5975,0,0,1.5503,1.5534,1.5559,1.5619,1.5647,1.5688,1.5674,1.5719,1.575,1.5753,1.5808,1.5829,1.5868,1.5928,1.5956,1.5947,1.6044,1.6018,1.6021,1.6024,1.6057,1.6065,1.6072,1.5978,1.5978,1.5977,0,0,1.5557,1.5585,1.5631,1.5659,1.5701,1.5718,1.5729,1.5772,1.5786,1.5842,1.5845,1.5882,1.5952,1.598,1.6003,1.6067,1.6067,1.608,1.6106,1.6139,1.6145,1.6151,1.6173,1.6181,1.6085,1.6085,1.6085,0,1.5573,1.5637,1.5654,1.5699,1.5725,1.573,1.5777,1.5803,1.5855,1.5873,1.5862,1.595,1.5977,1.6043,1.6059,1.6078,1.609,1.6074,1.6143,1.6149,1.6155,1.6176,1.6184,1.6086,1.6086,1.6086,1.6086,0,1.5655,1.5699,1.5731,1.5782,1.5811,1.5857,1.588,1.5908,1.5916,1.5934,1.5991,1.6024,1.6069,1.6086,1.6093,1.6153,1.6146,1.6139,1.612,1.6164,1.6184,1.6192,1.6088,1.6088,1.6087,1.6087,0,0,1.5713,1.5773,1.5785,1.5808,1.5854,1.5888,1.5934,1.5979,1.6002,1.6039,1.6076,1.6136,1.613,1.6156,1.6166,1.6195,1.6243,1.6185,1.6186,1.6193,1.6309,1.6313,1.6322,1.6243,1.6245,1.6246,1.6305,0,1.5771,1.5852,1.5869,1.5939,1.5979,1.5985,1.6024,1.6057,1.6076,1.6112,1.6133,1.6174,1.6164,1.6179,1.6208,1.6231,1.6266,1.6227,1.6277,1.6279,1.6266,1.6333,1.6337,1.6391,1.6313,1.6315,1.6316,0,1.5849,1.5887,1.5961,1.6002,1.602,1.6055,1.6098,1.6133,1.617,1.6181,1.6211,1.6218,1.6265,1.6244,1.6307,1.628,1.6302,1.6316,1.6319,1.6323,1.6299,1.6337,1.6409,1.6417,1.6328,1.6327,1.6326,0,1.5883,1.5953,1.6006,1.6026,1.6075,1.6099,1.6121,1.6156,1.6182,1.622,1.6237,1.6279,1.6302,1.6334,1.6352,1.6335,1.6414,1.6395,1.6424,1.6423,1.6439,1.6437,1.6514,1.6455,1.6455,1.6455,1.6455,0,1.5945,1.5989,1.6022,1.6054,1.6104,1.6123,1.6172,1.6193,1.6225,1.6261,1.6269,1.6302,1.6325,1.6362,1.6376,1.6426,1.6437,1.6446,1.6449,1.6445,1.6443,1.6458,1.6455,1.6457,1.6456,1.6456,1.6456,0,1.599,1.6014,1.6072,1.6114,1.6126,1.6161,1.6196,1.6228,1.6247,1.6293,1.6304,1.6334,1.6378,1.6399,1.6453,1.6463,1.6519,1.652,1.6506,1.6507,1.6535,1.6531,1.6622,1.6634,1.6569,1.6569,1.657,0,1.6027,1.6062,1.6108,1.6133,1.6155,1.6196,1.6222,1.6243,1.627,1.6315,1.634,1.6384,1.642,1.6489,1.6515,1.6557,1.6558,1.6587,1.6564,1.6558,1.6557,1.6554,1.6557,1.6591,1.6591,1.6592,1.6592,0,1.6091,1.6101,1.6139,1.6182,1.6214,1.6249,1.6282,1.6302,1.6328,1.6358,1.6403,1.6431,1.6487,1.653,1.6573,1.6594,1.6597,1.66,1.6608,1.6603,1.6593,1.6598,1.6516,1.6597,1.6597,1.6596,1.6596,1.6596,1.6132,1.6163,1.62,1.6243,1.6271,1.6302,1.6333,1.6357,1.6395,1.6442,1.6451,1.6499,1.6534,1.6592,1.6615,1.6651,1.6645,1.6658,1.6661,1.6663,1.6664,1.6589,1.666,1.6659,1.6659,1.6659,1.6659,0,1.6195,1.6219,1.6258,1.6306,1.6339,1.634,1.6378,1.6405,1.6447,1.648,1.6516,1.6567,1.6609,1.6638,1.6681,1.6704,1.6706,1.6714,1.6712,1.6717,1.6668,1.6656,1.6712,1.6712,1.6712,1.6712,1.6712,1.6712,1.6231,1.6283,1.6297,1.6362,1.6386,1.6433,1.6454,1.6483,1.651,1.6567,1.6602,1.6621,1.6652,1.6697,1.6735,1.6743,1.6757,1.6765,1.6772,1.6726,1.672,1.6715,1.6703,1.6768,1.6768,1.6818,1.6818,1.6818]}]]